Welcome to the New NWS' Forecast!
Most changes are behind the scenes, but click here for differences you might notice.
Latest weather observations around

Fryeburg, Eastern Slopes Regional Airport (KIZG)

Using English Units (Switch to International System of Units)
Date/ Time (EDT) Wind (mph) Vis. (mi) Weather Sky Cond. Temp (°F) Rel. Humidity Wind Chill (°F) Heat Index (°F) Pressure Precip. (in)
Air Dwpt 6 hour Altimeter (inHg) Sea level (inHg) 1 hr 3 hr 6 hr
Max Min
Notice The following observation data may not be complete
Aug 18 10:40   10 Mostly Cloudy BKN011 BKN043          %              
Aug 18 08:20 N 10 6 Light Rain and Fog/Mist BKN006 OVC049 70 69     97%     29.79   0    
Aug 18 02:54 Calm 5 Fog/Mist FEW010 BKN028 68 67     96%     29.8 29.79      
Aug 18 02:07 Calm 9 Mostly Cloudy BKN010 BKN013 69 68     96%     29.81        
Aug 18 01:33 WSW 5 10 Mostly Clear FEW006 FEW026 68 67     96%     29.83        
Aug 17 22:05 Calm 10 Cloudy FEW015 BKN035 OVC048 68 66     93%     29.94        
Aug 17 21:37 SE 8 6 Rain and Fog/Mist BKN024 BKN028 OVC045 69 66     90%     29.95   0    
Aug 17 18:54 S 5 10 Mostly Cloudy SCT032 BKN120 72 63     73%   72 29.97 29.97      
Aug 17 15:54 SSE 7 10 Mostly Cloudy BKN039 78 64     62%   79 30 30 0    
Aug 17 14:54 SSE 3 10 Mostly Cloudy BKN048 78 63     60%   78 30.03 30.03      
Aug 17 13:54 SSE 7 10 Clear CLR 79 62     56%   79 30.05 30.05      
Aug 17 12:54 S 8 10 Mostly Clear FEW065 80 61     52%   81 30.07 30.06      
Aug 17 11:54 SSE 7 10 Clear CLR 76 59     56%   76 30.09 30.09      
Aug 17 10:54 3 10 Clear CLR 74 60     62%   74 30.11 30.11      
Aug 17 09:54 Calm 10 Clear CLR 69 57     65%     30.12 30.12      
Aug 17 08:54 Calm 10 Partly Cloudy SCT042 63 57     81%     30.13 30.14      
Aug 17 07:54 Calm 10 Partly Cloudy FEW001 SCT009 57 56     96%     30.14 30.14      
Aug 17 07:36 Calm 3 Fog/Mist OVC003 55        %     30.15        
Aug 17 07:31 Calm 1.5 Fog/Mist OVC001 56 56     100%     30.15        
Aug 17 07:25 Calm 0.5 Fog VV001 55 55     100%     30.15        
Aug 17 06:54 Calm 0.25 Fog VV001 53 53     100%     30.14 30.14      
Aug 17 05:54 Calm 0.25 Fog VV001 50 50     100%     30.14 30.14      
Aug 17 05:51 Calm 1.25 Fog/Mist OVC002 50 50     100%     30.14        
Aug 17 05:43 Calm 2.5 Fog/Mist BKN002 50 50     100%     30.14        
Aug 17 05:32 Calm 1.25 Fog/Mist BKN001 49 49     100%     30.14        
Aug 17 05:30 Calm 2.5 Fog/Mist BKN001 50 50     100%     30.14        
Aug 17 05:20 Calm 3 Fog/Mist FEW002 50 50     100%     30.14        
Aug 17 05:11 Calm 1.75 Fog/Mist SCT002 49 49     100%     30.14        
Aug 17 05:03 Calm 3 Fog/Mist FEW002 49 49     100%     30.14        
Aug 17 04:54 Calm 3 Fog/Mist BKN002 50 50     100%     30.14 30.14      
Aug 17 04:02 Calm 10 Mostly Clear FEW002 51 51     100%     30.13        
Aug 17 03:54 Calm 2.5 Fog/Mist FEW002 51 51     100%     30.13 30.13      
Aug 17 03:51 Calm 2 Fog/Mist FEW002 52 52     100%     30.13        
Aug 17 03:43 Calm 1.25 Fog/Mist FEW002 51 51     100%     30.13        
Aug 17 03:27 Calm 1.5 Fog/Mist CLR 50 50     100%     30.13        
Aug 17 03:21 Calm 3 Fog/Mist CLR 51 51     100%     30.13        
Aug 17 03:10 Calm 1.5 Fog/Mist FEW002 51 51     100%     30.12        
Aug 17 02:54 Calm 2 Fog/Mist FEW002 52 52     100%     30.12 30.12      
Aug 17 02:36 Calm 1.5 Fog/Mist FEW002 51 51     100%     30.12        
Aug 17 01:54 Calm 10 Clear CLR 53 53     100%     30.12 30.11      
Aug 17 00:54 Calm 10 Clear CLR 54 54     100%     30.11 30.11      
Aug 16 23:54 WSW 3 10 Clear CLR 56 56     100%     30.12 30.11      
Aug 16 23:02 Calm 10 Mostly Clear FEW002 56 56     100%     30.1        
Aug 16 22:54 Calm 10 Clear CLR 57 57     100%     30.1 30.1      
Aug 16 21:54 Calm 10 Clear CLR 59 58     96%     30.09 30.09      
Aug 16 20:54 WNW 3 10 Clear CLR 60 60     100%     30.07 30.07      
Aug 16 19:54 W 5 10 Clear CLR 66 61     84%     30.04 30.04      
Aug 16 18:54 3 10 Clear CLR 77 54     45%   77 30.03 30.03      
Aug 16 17:54 WNW 7 10 Clear CLR 79 54     42%   79 30.02 30.01      
Aug 16 16:54 NW 10 10 Clear CLR 81 54     39%   81 30.01 30      
Aug 16 15:54 WNW 9 10 Clear CLR 82 54     38%   81 30 29.99      
Aug 16 14:54 WNW 9 10 Clear CLR 83 55     38%   82 29.99 29.98      
Aug 16 13:54 WNW 10 10 Clear CLR 83 54     37%   82 29.98 29.97      
Aug 16 12:54 W 9 10 Clear CLR 82 55     40%   81 29.98 29.97      
Aug 16 11:54 NW 9 10 Clear CLR 80 60     51%   81 29.98 29.97      
Aug 16 10:54 WNW 8 10 Mostly Clear FEW045 FEW055 80 64     58%   82 29.98 29.97      
Aug 16 09:54 7 10 Clear CLR 78 66     67%   79 29.98 29.97      
Aug 16 08:54 W 3 10 Mostly Clear FEW060 75 69     82%   76 29.98 29.97      
Aug 16 07:54 ESE 3 10 Clear CLR 71 69     93%   72 29.98 29.97      
Aug 16 06:54 Calm 10 Mostly Cloudy SCT055 BKN070 BKN080 68 68     100%     29.96 29.95      
Aug 16 05:54 ESE 3 10 Mostly Cloudy BKN085 67 67     100%     29.94 29.93      
Aug 16 04:54 WSW 3 10 Partly Cloudy SCT100 68 67     96%     29.92 29.91      
Aug 16 03:54 ENE 5 10 Clear CLR 69 67     93%     29.91 29.9      
Aug 16 02:54 NE 6 10 Clear CLR 68 67     96%     29.9 29.89      
Aug 16 01:54 WSW 5 10 Clear CLR 70 67     90%     29.89 29.88     0
Aug 16 00:54 SW 7 10 Mostly Clear FEW120 69 69     100%     29.9 29.9 0    
Aug 15 23:54 NW 7 10 Light Rain SCT120 75 66     74%   76 29.9 29.89 0    
Aug 15 22:54 5 10 Mostly Clear FEW110 73 67     81%   74 29.89 29.88 0 0  
Aug 15 21:54 WNW 3 10 Clear CLR 75 68     79%   76 29.88 29.88      
Aug 15 20:54 WSW 5 10 Clear CLR 73 68     84%   74 29.88 29.88      
Aug 15 19:54 Calm 10 Clear CLR 76 69     79%   77 29.85 29.84      
Aug 15 18:54 W 3 10 Clear CLR 80 68     67%   83 29.83 29.83      
Aug 15 17:54 W 7 10 Clear CLR 83 68     61%   86 29.82 29.82      
Aug 15 16:54 NNE 3 10 Clear CLR 86 70     59%   91 29.82 29.81      
Aug 15 15:54 Calm 10 Clear CLR 86 69     57%   90 29.82 29.81      
Aug 15 14:54 3 10 Partly Cloudy SCT041 85 70     61%   89 29.82 29.81      
Aug 15 13:54 N 3 10 Partly Cloudy FEW055 SCT070 82 70     67%   86 29.83 29.82      
Aug 15 12:54 E 3 10 Clear CLR 83 69     63%   87 29.83 29.82      
Aug 15 11:54 Calm 10 Clear CLR 80 70     71%   83 29.86 29.85      
Aug 15 11:02 Calm 10 Partly Cloudy SCT019 75 70     84%   76 29.86        
Aug 15 10:54 3 10 Mostly Cloudy BKN017 75 69     82%   76 29.86 29.85      
Aug 15 09:54 3 10 Cloudy OVC013 73 69     87%   74 29.86 29.85      
Aug 15 08:54 SSW 3 10 Cloudy OVC013 71 70     96%   72 29.85 29.84      
Aug 15 08:29 Calm 10 Cloudy OVC009 70 70     100%     29.85        
Aug 15 07:54 NNW 3 10 Cloudy OVC010 70 70     100%     29.84 29.84      
Aug 15 07:13 Calm 10 Cloudy OVC010 69 69     100%     29.84        
Aug 15 06:54 Calm 10 Cloudy OVC009 69 69     100%     29.83 29.83      
Aug 15 05:54 Calm 8 Cloudy FEW002 OVC008 69 69     100%     29.82 29.82      
Aug 15 04:54 Calm 9 Cloudy OVC008 68 68     100%     29.82 29.81      
Aug 15 03:54 Calm 10 Cloudy OVC008 69 69     100%     29.82 29.82      
Aug 15 02:54 Calm 10 Cloudy OVC007 69 69     100%     29.82 29.82      
Aug 15 01:54 Calm 10 Cloudy OVC006 69 69     100%     29.84 29.83     0
Aug 15 01:14 Calm 10 Cloudy OVC009 68 68     100%     29.84        
Aug 15 00:54 Calm 10 Cloudy OVC010 68 68     100%     29.84 29.84      
Aug 15 00:33 Calm 9 Cloudy FEW004 OVC010 67 67     100%     29.85        
Aug 15 00:23 Calm 7 Cloudy BKN004 OVC010 67 67     100%     29.85        
Aug 14 23:54 Calm 10 Mostly Cloudy BKN006 BKN060 68 68     100%     29.86 29.85 0    
Aug 14 23:52 Calm 10 Mostly Cloudy BKN006 BKN060 68 68     100%     29.86   0    
May 15 11:54 SW 8 10 Mostly Cloudy BKN110 75 58     55%   75 29.73 29.73      
May 15 04:54 Calm 10 Clear CLR 47 46     97%     29.8 29.8      
May 13 19:54 S 7 10 Clear CLR 59 31     34%     30.05 30.06      
May 13 06:54 Calm 10 Clear CLR 38 36     92%     30.19 30.2      
May 13 02:08 Calm 1.5 Fog/Mist FEW002 33 32     96%     30.14        
May 12 18:54 7 10 Clear CLR 54 32     43%     30.07 30.08      
May 12 16:54 SSW 9 10 Clear   60 29     31%     30.06 30.07      
May 12 11:54 S 9 10 Clear CLR 60 26     27%     30.16 30.16      
May 12 04:54 W 3 3 Fog/Mist CLR 29 28     96% 25   30.2 30.21      
May 12 04:50 W 3 2 Fog/Mist FEW002 28 27     93% 25   30.2        
May 12 03:54 Calm 10 Clear CLR 31 29     92%     30.2 30.2      
May 12 00:54 Calm 10 Clear CLR 35 29     78%     30.17 30.18      
May 11 20:54 NW 3 10 Clear CLR 50 18     28% 49   30.1 30.11      
May 11 15:54   10 Clear CLR 62 17     17%     29.97 29.98      
Jun 11 23:54 SW 6 10 Clear CLR 74 60     62%   74 29.89 29.88      
Jun 10 04:54 Calm 10 Clear CLR 54 49     83%     29.86 29.86      
Jun 10 01:54 WSW 6 10 Clear CLR 62 50     65%     29.81 29.8      
Jun 09 15:54 SW 7 10 Clear CLR 68 58     70%     29.58 29.58      
Jun 07 22:54 Calm 10 Clear CLR 53 52     96%     29.98 29.98      
Jun 05 22:28 6 10 Cloudy FEW009 BKN022 OVC027 51 49     92%     29.99   0